Simultaneous Nadir Overpasses (SNOs) Predictions

Prediction of SNOs between GOES-15 and LANDSAT-8 Satellite Orbit:

Table of predicted SNOs for the next 14.0 days since TLE Epoch: 12/4/2021
Index Date Time (GOES-15) GOES-15 Lat,Lon LANDSAT-8 Lat,Lon Distance(km) Time Diff (sec)
1 12/04/2021 18:45:40 -0.18,-128.11 -0.19,-127.97 14.87 71
2 12/06/2021 18:30:58 -0.18,-128.05 -0.84,-125.02 344.45 80
3 12/07/2021 06:55:02 0.17,-128.01 -0.27,-130.21 249.67 80
4 12/09/2021 06:40:10 0.16,-127.95 0.32,-127.25 79.92 80
5 12/11/2021 06:27:58 0.16,-127.89 0.93,-124.28 409.57 80
6 12/11/2021 18:51:52 -0.14,-127.89 0.20,-129.44 175.77 80
7 12/13/2021 18:37:01 -0.15,-127.83 -0.41,-126.47 153.74 80
8 12/14/2021 07:01:04 0.13,-127.79 -0.70,-131.66 440.25 80
9 12/15/2021 18:24:50 -0.15,-127.76 -1.08,-123.52 482.78 80
10 12/16/2021 06:48:52 0.13,-127.73 -0.09,-128.70 111.35 80
